13-10-2023, 00:00:01,    173,    0.0,   12.6,   0.00,   0.01, 1004.6,    0.2, -999.0
13-10-2023, 00:00:10,    173,    0.0,   12.6,   0.00,   0.01, 1004.6,    0.2, -999.0
13-10-2023, 00:00:21,    173,    0.0,   12.6,   0.00,   0.02, 1004.5,    0.3, -999.0
13-10-2023, 00:00:31,    173,    0.0,   12.7,   0.00,   0.02, 1004.6,    0.4, -999.0
13-10-2023, 00:00:40,    173,    0.0,   12.7,   0.00,   0.01, 1004.5,    0.2, -999.0
13-10-2023, 00:00:50,    173,    0.0,   12.7,   0.00,   0.02, 1004.5,    0.3, -999.0
13-10-2023, 00:01:01,    173,    0.0,   12.7,   0.00,   0.01, 1004.5,    0.0, -999.0
13-10-2023, 00:01:11,    173,    0.0,   12.6,   0.00,   0.02, 1004.5,    0.3, -999.0
13-10-2023, 00:01:20,    173,    0.0,   12.6,   0.00,   0.01, 1004.5,    0.1, -999.0
13-10-2023, 00:01:30,    173,    0.0,   12.6,   0.00,   0.01, 1004.5,    0.2, -999.0
13-10-2023, 00:01:41,    173,    0.0,   12.6,   0.00,   0.01, 1004.5,    0.2, -999.0
13-10-2023, 00:01:50,    173,    0.0,   12.7,   0.00,   0.01, 1004.5,    0.3, -999.0
13-10-2023, 00:02:00,    173,    0.0,   12.6,   0.00,   0.00, 1004.5,    0.2, -999.0
13-10-2023, 00:02:10,    173,    0.0,   12.7,   0.00,   0.01, 1004.5,    0.2, -999.0
13-10-2023, 00:02:20,    173,    0.0,   12.7,   0.00,   0.01, 1004.5,    0.3, -999.0
13-10-2023, 00:02:30,    173,    0.9,   12.7,   0.00,   0.01, 1004.6,    0.2, -999.0
13-10-2023, 00:02:40,    173,    0.0,   12.6,   0.00,   0.01, 1004.5,    0.1, -999.0
13-10-2023, 00:02:50,    173,    0.3,   12.7,   0.00,   0.01, 1004.5,    0.5, -999.0
13-10-2023, 00:03:00,    172,    0.1,   12.6,   0.00,   0.01, 1004.5,    0.2, -999.0
13-10-2023, 00:03:10,    173,    0.0,   12.5,   0.00,   0.00, 1004.4,    0.2, -999.0
13-10-2023, 00:03:20,    172,    0.0,   12.6,   0.00,   0.01, 1004.4,    0.2, -999.0
13-10-2023, 00:03:30,    173,    0.0,   12.6,   0.00,   0.01, 1004.4,    0.2, -999.0
13-10-2023, 00:03:40,    173,    0.9,   12.7,   0.00,   0.00, 1004.5,    0.5, -999.0
13-10-2023, 00:03:50,    173,    0.3,   12.7,   0.00,   0.01, 1004.5,    0.3, -999.0
13-10-2023, 00:04:00,    173,    1.0,   12.7,   0.00,   0.01, 1004.5,    0.4, -999.0
13-10-2023, 00:04:10,    173,    0.6,   12.7,   0.00,   0.01, 1004.5,    0.4, -999.0
13-10-2023, 00:04:20,    173,    0.4,   12.7,   0.00,   0.01, 1004.5,    0.3, -999.0
13-10-2023, 00:04:30,    173,    0.3,   12.7,   0.00,   0.00, 1004.5,    0.5, -999.0
13-10-2023, 00:04:40,    173,    0.1,   12.6,   0.00,   0.01, 1004.4,    0.2, -999.0
13-10-2023, 00:04:50,    173,    0.5,   12.6,   0.00,   0.01, 1004.5,    0.5, -999.0
13-10-2023, 00:05:00,    162,    1.0,   12.7,   0.00,   0.01, 1004.5,    0.3, -999.0
13-10-2023, 00:05:10,    162,    0.2,   12.6,   0.00,   0.00, 1004.4,    0.2, -999.0
13-10-2023, 00:05:20,    162,    0.0,   12.6,   0.00,   0.01, 1004.4,    0.2, -999.0
13-10-2023, 00:05:30,    162,    0.1,   12.6,   0.00,   0.01, 1004.4,    0.1, -999.0
13-10-2023, 00:05:40,    162,    0.9,   12.7,   0.00,   0.00, 1004.5,    0.3, -999.0
13-10-2023, 00:05:50,    162,    0.8,   12.7,   0.00,   0.01, 1004.5,    0.3, -999.0
13-10-2023, 00:06:00,    162,    0.2,   12.7,   0.00,   0.01, 1004.4,    0.2, -999.0
13-10-2023, 00:06:10,    161,    0.1,   12.6,   0.00,   0.00, 1004.4,    0.4, -999.0
13-10-2023, 00:06:20,    161,    0.0,   12.5,   0.00,   0.01, 1004.3,    0.3, -999.0
13-10-2023, 00:06:30,    161,    0.0,   12.6,   0.00,   0.01, 1004.4,    0.2, -999.0
13-10-2023, 00:06:40,    161,    0.0,   12.6,   0.00,   0.01, 1004.3,    0.2, -999.0
13-10-2023, 00:06:50,    162,    0.0,   12.6,   0.00,   0.01, 1004.3,    0.2, -999.0
13-10-2023, 00:07:00,    161,    0.0,   12.6,   0.00,   0.01, 1004.3,    0.2, -999.0
13-10-2023, 00:07:09,    163,    0.0,   12.6,   0.00,   0.00, 1004.3,    0.2, -999.0
13-10-2023, 00:07:19,    162,    0.0,   12.6,   0.00,   0.01, 1004.3,    0.2, -999.0
13-10-2023, 00:07:30,    161,    0.0,   12.6,   0.00,   0.01, 1004.3,    0.4, -999.0
13-10-2023, 00:07:40,    161,    0.0,   12.6,   0.00,   0.01, 1004.3,    0.3, -999.0
13-10-2023, 00:07:49,    162,    0.0,   12.5,   0.00,   0.01, 1004.3,    0.4, -999.0
13-10-2023, 00:08:00,    162,    0.0,   12.6,   0.00,   0.01, 1004.3,    0.3, -999.0
13-10-2023, 00:08:10,    162,    0.3,   12.7,   0.00,   0.01, 1004.4,    0.3, -999.0
13-10-2023, 00:08:19,    162,    1.3,   12.7,   0.00,   0.01, 1004.5,    0.2, -999.0
13-10-2023, 00:08:29,    161,    1.5,   12.7,   0.00,   0.01, 1004.5,    0.3, -999.0
13-10-2023, 00:08:40,    161,    0.4,   12.5,   0.00,   0.01, 1004.4,    0.3, -999.0
13-10-2023, 00:08:49,    161,    0.0,   12.5,   0.00,   0.01, 1004.3,    0.2, -999.0
13-10-2023, 00:08:59,    162,    0.5,   12.6,   0.00,   0.00, 1004.4,    0.1, -999.0
13-10-2023, 00:09:09,    162,    0.6,   12.7,   0.00,   0.01, 1004.5,    0.2, -999.0
13-10-2023, 00:09:19,    162,    0.0,   12.6,   0.00,   0.01, 1004.3,    0.3, -999.0
13-10-2023, 00:09:29,    161,    0.0,   12.6,   0.00,   0.01, 1004.3,    0.2, -999.0
13-10-2023, 00:09:39,    162,    0.1,   12.6,   0.00,   0.01, 1004.4,    0.4, -999.0
13-10-2023, 00:09:49,    162,    0.0,   12.6,   0.00,   0.01, 1004.3,    0.2, -999.0
13-10-2023, 00:09:59,    162,    0.5,   12.6,   0.00,   0.01, 1004.4,    0.1, -999.0
13-10-2023, 00:10:09,    161,    0.0,   12.6,   0.00,   0.01, 1004.3,    0.1, -999.0
13-10-2023, 00:10:19,    162,    0.0,   12.6,   0.00,   0.00, 1004.3,    0.2, -999.0
13-10-2023, 00:10:29,    162,    0.0,   12.6,   0.00,   0.01, 1004.3,    0.4, -999.0
13-10-2023, 00:10:39,    132,    0.4,   12.6,   0.00,   0.01, 1004.3,    0.2, -999.0
13-10-2023, 00:10:49,    162,    1.5,   12.7,   0.00,   0.01, 1004.5,    0.3, -999.0
13-10-2023, 00:10:59,    175,    0.9,   12.7,   0.00,   0.00, 1004.4,    0.3, -999.0
13-10-2023, 00:11:09,    174,    0.1,   12.6,   0.00,   0.01, 1004.3,    0.2, -999.0
13-10-2023, 00:11:19,    174,    0.0,   12.5,   0.00,   0.01, 1004.2,    0.2, -999.0
13-10-2023, 00:11:29,    175,    0.3,   12.6,   0.00,   0.01, 1004.3,    0.1, -999.0
13-10-2023, 00:11:39,    135,    1.3,   12.7,   0.00,   0.00, 1004.4,    0.3, -999.0
13-10-2023, 00:11:49,    135,    0.8,   12.6,   0.00,   0.01, 1004.4,    0.2, -999.0
13-10-2023, 00:11:59,    136,    0.2,   12.6,   0.00,   0.01, 1004.3,    0.2, -999.0
13-10-2023, 00:12:09,    135,    0.3,   12.7,   0.00,   0.01, 1004.4,    0.3, -999.0
13-10-2023, 00:12:19,    139,    0.7,   12.7,   0.00,   0.01, 1004.4,    0.3, -999.0
13-10-2023, 00:12:29,    155,    0.2,   12.6,   0.00,   0.01, 1004.3,    0.2, -999.0
13-10-2023, 00:12:39,    155,    0.1,   12.6,   0.00,   0.00, 1004.3,    0.4, -999.0
13-10-2023, 00:12:49,    155,    0.0,   12.5,   0.00,   0.01, 1004.3,    0.1, -999.0
13-10-2023, 00:12:59,    155,    0.0,   12.5,   0.00,   0.01, 1004.3,    0.5, -999.0
13-10-2023, 00:13:09,    155,    0.0,   12.5,   0.00,   0.00, 1004.3,    0.4, -999.0
13-10-2023, 00:13:19,    155,    0.5,   12.7,   0.00,   0.01, 1004.3,    0.2, -999.0
13-10-2023, 00:13:29,    161,    0.8,   12.7,   0.00,   0.01, 1004.3,    0.3, -999.0
13-10-2023, 00:13:38,    160,    0.5,   12.6,   0.00,   0.01, 1004.3,    0.2, -999.0
13-10-2023, 00:13:49,    161,    0.4,   12.6,   0.00,   0.00, 1004.3,    0.3, -999.0
13-10-2023, 00:13:59,    160,    0.3,   12.5,   0.00,   0.01, 1004.3,    0.6, -999.0
13-10-2023, 00:14:09,    160,    0.0,   12.5,   0.00,   0.01, 1004.2,    0.2, -999.0
13-10-2023, 00:14:18,    160,    0.0,   12.6,   0.00,   0.00, 1004.2,    0.2, -999.0
13-10-2023, 00:14:29,    172,    0.6,   12.6,   0.00,   0.01, 1004.3,    0.2, -999.0
13-10-2023, 00:14:39,    172,    0.1,   12.6,   0.00,   0.01, 1004.2,    0.5, -999.0
13-10-2023, 00:14:48,    172,    0.1,   12.5,   0.00,   0.00, 1004.2,    0.2, -999.0
13-10-2023, 00:14:58,    174,    0.8,   12.6,   0.00,   0.01, 1004.3,    0.2, -999.0
13-10-2023, 00:15:09,    173,    0.0,   12.5,   0.00,   0.00, 1004.2,    0.3, -999.0
13-10-2023, 00:15:18,    174,    0.0,   12.5,   0.00,   0.01, 1004.2,    0.3, -999.0
13-10-2023, 00:15:28,    173,    0.0,   12.5,   0.00,   0.01, 1004.2,    0.0, -999.0
13-10-2023, 00:15:38,    174,    0.1,   12.6,   0.00,   0.00, 1004.2,    0.2, -999.0
13-10-2023, 00:15:49,    174,    0.0,   12.5,   0.00,   0.01, 1004.2,    0.2, -999.0
13-10-2023, 00:15:58,    173,    0.0,   12.4,   0.00,   0.00, 1004.2,    0.0, -999.0
13-10-2023, 00:16:08,    173,    0.0,   12.5,   0.00,   0.01, 1004.2,    0.3, -999.0
13-10-2023, 00:16:18,    174,    1.2,   12.6,   0.00,   0.00, 1004.2,    0.1, -999.0
13-10-2023, 00:16:28,    174,    0.9,   12.6,   0.00,   0.00, 1004.3,    0.3, -999.0
13-10-2023, 00:16:38,    173,    0.6,   12.6,   0.00,   0.01, 1004.2,    0.3, -999.0
13-10-2023, 00:16:48,    174,    1.2,   12.6,   0.00,   0.00, 1004.2,    0.4, -999.0
13-10-2023, 00:16:58,    182,    1.4,   12.6,   0.00,   0.01, 1004.3,    0.3, -999.0
13-10-2023, 00:17:08,    182,    0.1,   12.5,   0.00,   0.00, 1004.2,    0.3, -999.0
13-10-2023, 00:17:18,    182,    0.0,   12.5,   0.00,   0.00, 1004.2,    0.1, -999.0
13-10-2023, 00:17:28,    182,    0.2,   12.5,   0.00,   0.01, 1004.3,    0.2, -999.0
13-10-2023, 00:17:38,    182,    0.2,   12.6,   0.00,   0.00, 1004.3,    0.3, -999.0
13-10-2023, 00:17:48,    181,    0.0,   12.5,   0.00,   0.01, 1004.2,    0.2, -999.0
13-10-2023, 00:17:58,    176,    1.4,   12.6,   0.00,   0.00, 1004.3,    0.4, -999.0
13-10-2023, 00:18:08,    176,    0.3,   12.5,   0.00,   0.01, 1004.2,    0.2, -999.0
13-10-2023, 00:18:18,    176,    0.6,   12.6,   0.00,   0.00, 1004.3,    0.4, -999.0
13-10-2023, 00:18:28,    176,    1.0,   12.5,   0.00,   0.01, 1004.3,    0.2, -999.0
13-10-2023, 00:18:38,    175,    0.2,   12.5,   0.00,   0.00, 1004.2,    0.3, -999.0
13-10-2023, 00:18:48,    175,    0.0,   12.5,   0.00,   0.01, 1004.2,    0.2, -999.0
13-10-2023, 00:18:58,    175,    0.0,   12.5,   0.00,   0.00, 1004.2,    0.2, -999.0
13-10-2023, 00:19:08,    175,    0.0,   12.4,   0.00,   0.01, 1004.2,    0.2, -999.0
13-10-2023, 00:19:18,    176,    0.2,   12.5,   0.00,   0.00, 1004.2,    0.2, -999.0
13-10-2023, 00:19:28,    175,    0.3,   12.6,   0.00,   0.01, 1004.3,    0.2, -999.0
13-10-2023, 00:19:38,    176,    0.8,   12.6,   0.00,   0.00, 1004.3,    0.3, -999.0
13-10-2023, 00:19:48,    176,    0.3,   12.6,   0.00,   0.01, 1004.2,    0.2, -999.0
13-10-2023, 00:19:58,    175,    0.2,   12.5,   0.00,   0.00, 1004.2,    0.2, -999.0
13-10-2023, 00:20:08,    175,    0.0,   12.5,   0.00,   0.01, 1004.1,    0.3, -999.0
13-10-2023, 00:20:18,    176,    0.1,   12.5,   0.00,   0.00, 1004.1,    0.2, -999.0
13-10-2023, 00:20:28,    175,    0.0,   12.5,   0.00,   0.01, 1004.1,    0.3, -999.0
13-10-2023, 00:20:38,    175,    0.0,   12.5,   0.00,   0.00, 1004.1,    0.2, -999.0
13-10-2023, 00:20:47,    175,    0.0,   12.5,   0.00,   0.01, 1004.1,    0.1, -999.0
13-10-2023, 00:20:58,    176,    0.0,   12.5,   0.00,   0.00, 1004.1,    0.2, -999.0
13-10-2023, 00:21:08,    154,    2.2,   12.6,   0.00,   0.01, 1004.2,    0.4, -999.0
13-10-2023, 00:21:17,    162,    2.0,   12.6,   0.00,   0.00, 1004.2,    0.2, -999.0
13-10-2023, 00:21:27,    161,    0.6,   12.6,   0.00,   0.01, 1004.2,    0.3, -999.0
13-10-2023, 00:21:38,    162,    0.9,   12.5,   0.00,   0.00, 1004.2,    0.2, -999.0
13-10-2023, 00:21:47,    161,    0.5,   12.6,   0.00,   0.01, 1004.2,    0.4, -999.0
13-10-2023, 00:21:57,    162,    0.1,   12.5,   0.00,   0.00, 1004.1,    0.3, -999.0
13-10-2023, 00:22:07,    162,    0.9,   12.6,   0.00,   0.01, 1004.2,    0.2, -999.0
13-10-2023, 00:22:18,    162,    1.0,   12.6,   0.00,   0.00, 1004.2,    0.3, -999.0
13-10-2023, 00:22:27,    162,    1.0,   12.6,   0.00,   0.01, 1004.2,    0.3, -999.0
13-10-2023, 00:22:37,    161,    0.1,   12.4,   0.00,   0.00, 1004.1,    0.3, -999.0
13-10-2023, 00:22:48,    162,    0.3,   12.6,   0.00,   0.01, 1004.2,    0.3, -999.0
13-10-2023, 00:22:57,    199,    1.0,   12.5,   0.00,   0.00, 1004.2,    0.3, -999.0
13-10-2023, 00:23:07,    199,    0.2,   12.5,   0.00,   0.01, 1004.1,    0.3, -999.0
13-10-2023, 00:23:17,    198,    0.0,   12.6,   0.00,   0.00, 1004.1,    0.1, -999.0
13-10-2023, 00:23:27,    199,    0.1,   12.5,   0.00,   0.00, 1004.1,    0.3, -999.0
13-10-2023, 00:23:37,    198,    0.1,   12.5,   0.00,   0.01, 1004.0,    0.2, -999.0
13-10-2023, 00:23:47,    143,    0.8,   12.6,   0.00,   0.00, 1004.1,    0.2, -999.0
13-10-2023, 00:23:57,    175,    2.5,   12.6,   0.00,   0.01, 1004.2,    0.3, -999.0
13-10-2023, 00:24:07,    194,    1.4,   12.6,   0.00,   0.00, 1004.1,    0.3, -999.0
13-10-2023, 00:24:17,    161,    1.6,   12.6,   0.00,   0.01, 1004.2,    0.2, -999.0
13-10-2023, 00:24:27,    147,    1.7,   12.6,   0.00,   0.01, 1004.1,    0.4, -999.0
13-10-2023, 00:24:37,    147,    0.7,   12.6,   0.00,   0.00, 1004.1,    0.2, -999.0
13-10-2023, 00:24:47,    147,    0.2,   12.5,   0.00,   0.01, 1004.0,    0.2, -999.0
13-10-2023, 00:24:57,    147,    0.0,   12.5,   0.00,   0.00, 1004.0,    0.3, -999.0
13-10-2023, 00:25:07,    147,    0.0,   12.5,   0.00,   0.01, 1004.0,    0.1, -999.0
13-10-2023, 00:25:17,    147,    0.2,   12.5,   0.00,   0.00, 1004.1,    0.4, -999.0
13-10-2023, 00:25:27,    147,    0.4,   12.5,   0.00,   0.01, 1004.1,    0.2, -999.0
13-10-2023, 00:25:37,    147,    0.0,   12.5,   0.00,   0.01, 1003.9,    0.3, -999.0
13-10-2023, 00:25:47,    153,    1.8,   12.5,   0.00,   0.00, 1004.1,    0.2, -999.0
13-10-2023, 00:25:57,    187,    2.8,   12.6,   0.00,   0.01, 1004.1,    0.2, -999.0
13-10-2023, 00:26:07,    178,    0.7,   12.5,   0.00,   0.00, 1004.0,    0.4, -999.0
13-10-2023, 00:26:17,    164,    1.9,   12.6,   0.00,   0.01, 1004.0,    0.3, -999.0
13-10-2023, 00:26:27,    154,    0.8,   12.6,   0.00,   0.00, 1004.0,    0.4, -999.0
13-10-2023, 00:26:37,    154,    0.0,   12.5,   0.00,   0.01, 1003.9,    0.2, -999.0
13-10-2023, 00:26:47,    155,    0.0,   12.5,   0.00,   0.00, 1003.9,    0.3, -999.0
13-10-2023, 00:26:57,    154,    0.3,   12.5,   0.00,   0.01, 1003.9,    0.5, -999.0
13-10-2023, 00:27:07,    154,    0.2,   12.5,   0.00,   0.00, 1003.9,    0.3, -999.0
13-10-2023, 00:27:16,    154,    1.0,   12.7,   0.00,   0.01, 1004.0,    0.3, -999.0
13-10-2023, 00:27:27,    166,    1.7,   12.7,   0.00,   0.00, 1004.0,    0.3, -999.0
13-10-2023, 00:27:37,    163,    2.1,   12.6,   0.00,   0.00, 1004.0,    0.4, -999.0
13-10-2023, 00:27:46,    163,    2.0,   12.7,   0.00,   0.01, 1004.0,    0.3, -999.0
13-10-2023, 00:27:57,    163,    1.1,   12.6,   0.00,   0.00, 1004.0,    0.3, -999.0
13-10-2023, 00:28:07,    167,    2.0,   12.6,   0.00,   0.01, 1004.0,    0.2, -999.0
13-10-2023, 00:28:17,    126,    0.9,   12.5,   0.00,   0.00, 1003.9,    0.2, -999.0
13-10-2023, 00:28:26,    127,    0.2,   12.5,   0.00,   0.01, 1003.9,    0.2, -999.0
13-10-2023, 00:28:37,    160,    0.9,   12.5,   0.00,   0.00, 1004.0,    0.3, -999.0
13-10-2023, 00:28:47,    161,    0.0,   12.5,   0.00,   0.00, 1003.8,    0.3, -999.0
13-10-2023, 00:28:56,    161,    0.2,   12.6,   0.00,   0.01, 1003.9,    0.3, -999.0
13-10-2023, 00:29:06,    161,    0.0,   12.5,   0.00,   0.00, 1003.8,    0.1, -999.0
13-10-2023, 00:29:17,    161,    0.0,   12.4,   0.00,   0.01, 1003.8,    0.1, -999.0
13-10-2023, 00:29:26,    150,    1.4,   12.6,   0.00,   0.00, 1004.0,    0.1, -999.0
13-10-2023, 00:29:36,    158,    1.5,   12.6,   0.00,   0.00, 1004.0,    0.3, -999.0
13-10-2023, 00:29:46,    174,    1.9,   12.6,   0.00,   0.01, 1003.9,    0.1, -999.0
13-10-2023, 00:29:57,    174,    0.2,   12.5,   0.00,   0.00, 1003.9,    0.1, -999.0
13-10-2023, 00:30:06,    174,    0.0,   12.5,   0.00,   0.01, 1003.8,    0.3, -999.0
13-10-2023, 00:30:16,    174,    0.0,   12.5,   0.00,   0.00, 1003.8,    0.1, -999.0
13-10-2023, 00:30:26,    174,    0.0,   12.5,   0.00,   0.01, 1003.8,    0.3, -999.0
13-10-2023, 00:30:36,    174,    0.0,   12.5,   0.00,   0.00, 1003.8,    0.1, -999.0
13-10-2023, 00:30:46,    174,    0.3,   12.5,   0.00,   0.01, 1003.9,    0.3, -999.0
13-10-2023, 00:30:56,    175,    1.0,   12.8,   0.00,   0.00, 1003.9,    0.1, -999.0
13-10-2023, 00:31:06,    169,    1.6,   12.6,   0.00,   0.01, 1004.0,    0.5, -999.0
13-10-2023, 00:31:16,    168,    1.1,   12.7,   0.00,   0.00, 1003.9,    0.2, -999.0
13-10-2023, 00:31:26,    200,    2.2,   12.5,   0.00,   0.01, 1003.9,    0.3, -999.0
13-10-2023, 00:31:36,    165,    1.4,   12.5,   0.00,   0.00, 1004.0,    0.2, -999.0
13-10-2023, 00:31:46,    166,    0.8,   12.5,   0.00,   0.01, 1003.9,    0.5, -999.0
13-10-2023, 00:31:56,    166,    0.5,   12.4,   0.00,   0.01, 1003.9,    0.2, -999.0
13-10-2023, 00:32:06,    166,    0.7,   12.6,   0.00,   0.00, 1003.9,    0.2, -999.0
13-10-2023, 00:32:16,    166,    0.4,   12.6,   0.00,   0.01, 1003.9,    0.2, -999.0
13-10-2023, 00:32:26,    166,    0.0,   12.4,   0.00,   0.00, 1003.8,    0.0, -999.0
13-10-2023, 00:32:36,    166,    0.6,   12.6,   0.00,   0.01, 1003.9,    0.2, -999.0
13-10-2023, 00:32:46,    166,    0.6,   12.6,   0.00,   0.00, 1003.9,    0.2, -999.0
13-10-2023, 00:32:56,    166,    0.0,   12.5,   0.00,   0.01, 1003.8,    0.4, -999.0
13-10-2023, 00:33:06,    166,    0.2,   12.5,   0.00,   0.01, 1003.8,    0.1, -999.0
13-10-2023, 00:33:16,    166,    0.2,   12.5,   0.00,   0.00, 1003.8,    0.2, -999.0
13-10-2023, 00:33:26,    166,    0.6,   12.6,   0.00,   0.01, 1003.9,    0.3, -999.0
13-10-2023, 00:33:36,    166,    0.5,   12.5,   0.00,   0.01, 1003.9,    0.3, -999.0
13-10-2023, 00:33:46,    158,    0.2,   12.5,   0.00,   0.00, 1003.9,    0.1, -999.0
13-10-2023, 00:33:56,    134,    0.9,   12.6,   0.00,   0.01, 1003.9,    0.4, -999.0
13-10-2023, 00:34:06,    154,    2.1,   12.6,   0.00,   0.01, 1003.9,    0.3, -999.0
13-10-2023, 00:34:16,    178,    1.9,   12.5,   0.00,   0.00, 1003.9,    0.4, -999.0
13-10-2023, 00:34:26,    147,    2.6,   12.6,   0.00,   0.01, 1003.9,    0.2, -999.0
13-10-2023, 00:34:36,    164,    2.2,   12.6,   0.00,   0.00, 1003.9,    0.4, -999.0
13-10-2023, 00:34:45,    180,    1.8,   12.6,   0.00,   0.01, 1003.9,    0.3, -999.0
13-10-2023, 00:34:56,    179,    0.9,   12.6,   0.00,   0.01, 1003.8,    0.2, -999.0
13-10-2023, 00:35:06,    148,    1.8,   12.6,   0.00,   0.00, 1003.8,    0.3, -999.0
13-10-2023, 00:35:16,    160,    2.3,   12.6,   0.00,   0.01, 1003.8,    0.3, -999.0
13-10-2023, 00:35:25,    170,    2.5,   12.5,   0.00,   0.00, 1003.7,    0.3, -999.0
13-10-2023, 00:35:36,    188,    1.5,   12.6,   0.00,   0.01, 1003.8,    0.4, -999.0
13-10-2023, 00:35:46,    160,    2.2,   12.6,   0.00,   0.01, 1003.8,    0.4, -999.0
13-10-2023, 00:35:55,    161,    1.8,   12.6,   0.00,   0.00, 1003.8,    0.3, -999.0
13-10-2023, 00:36:05,    161,    0.8,   12.5,   0.00,   0.01, 1003.7,    0.1, -999.0
13-10-2023, 00:36:16,    160,    0.5,   12.6,   0.00,   0.00, 1003.7,    0.1, -999.0
13-10-2023, 00:36:25,    171,    0.6,   12.5,   0.00,   0.01, 1003.7,    0.2, -999.0
13-10-2023, 00:36:35,    171,    0.8,   12.6,   0.00,   0.00, 1003.8,    0.5, -999.0
13-10-2023, 00:36:46,    171,    0.0,   12.5,   0.00,   0.01, 1003.6,    0.4, -999.0
13-10-2023, 00:36:55,    171,    0.0,   12.4,   0.00,   0.00, 1003.6,    0.3, -999.0
13-10-2023, 00:37:05,    171,    0.8,   12.6,   0.00,   0.01, 1003.7,    0.1, -999.0
13-10-2023, 00:37:15,    171,    0.3,   12.6,   0.00,   0.00, 1003.7,    0.2, -999.0
13-10-2023, 00:37:25,    171,    0.0,   12.5,   0.00,   0.01, 1003.7,    0.1, -999.0
13-10-2023, 00:37:35,    171,    0.0,   12.5,   0.00,   0.00, 1003.6,    0.2, -999.0
13-10-2023, 00:37:45,    171,    0.2,   12.5,   0.00,   0.01, 1003.7,    0.2, -999.0
13-10-2023, 00:37:55,    171,    1.6,   12.5,   0.00,   0.00, 1003.8,    0.5, -999.0
13-10-2023, 00:38:05,    171,    1.4,   12.6,   0.00,   0.01, 1003.7,    0.2, -999.0
13-10-2023, 00:38:15,    167,    1.2,   12.5,   0.00,   0.01, 1003.7,    0.2, -999.0
13-10-2023, 00:38:25,    170,    0.7,   12.5,   0.00,   0.00, 1003.7,    0.3, -999.0
13-10-2023, 00:38:35,    171,    0.6,   12.6,   0.00,   0.01, 1003.7,    0.3, -999.0
13-10-2023, 00:38:45,    167,    2.0,   12.6,   0.00,   0.00, 1003.7,    0.3, -999.0
13-10-2023, 00:38:55,    166,    1.6,   12.5,   0.00,   0.01, 1003.7,    0.2, -999.0
13-10-2023, 00:39:05,    166,    0.2,   12.5,   0.00,   0.00, 1003.7,    0.3, -999.0
13-10-2023, 00:39:15,    166,    0.0,   12.5,   0.00,   0.01, 1003.6,    0.3, -999.0
13-10-2023, 00:39:25,    166,    0.0,   12.4,   0.00,   0.01, 1003.6,    0.1, -999.0
13-10-2023, 00:39:35,    181,    0.8,   12.5,   0.00,   0.00, 1003.7,    0.3, -999.0
13-10-2023, 00:39:45,    181,    0.3,   12.5,   0.00,   0.01, 1003.7,    0.3, -999.0
13-10-2023, 00:39:55,    181,    0.5,   12.5,   0.00,   0.01, 1003.7,    0.2, -999.0
13-10-2023, 00:40:05,    181,    0.5,   12.6,   0.00,   0.00, 1003.7,    0.3, -999.0
13-10-2023, 00:40:15,    181,    1.0,   12.6,   0.00,   0.01, 1003.7,    0.2, -999.0
13-10-2023, 00:40:25,    180,    0.0,   12.5,   0.00,   0.00, 1003.6,    0.3, -999.0
13-10-2023, 00:40:35,    181,    0.4,   12.4,   0.00,   0.01, 1003.6,    0.4, -999.0
13-10-2023, 00:40:45,    181,    0.5,   12.6,   0.00,   0.01, 1003.7,    0.2, -999.0
13-10-2023, 00:40:55,    181,    0.1,   12.5,   0.00,   0.01, 1003.6,    0.4, -999.0
13-10-2023, 00:41:05,    180,    0.0,   12.5,   0.00,   0.00, 1003.5,    0.5, -999.0
13-10-2023, 00:41:15,    154,    1.1,   12.5,   0.00,   0.01, 1003.7,    0.2, -999.0
13-10-2023, 00:41:25,    192,    1.1,   12.6,   0.00,   0.00, 1003.6,    0.3, -999.0
13-10-2023, 00:41:35,    191,    0.5,   12.6,   0.00,   0.01, 1003.6,    0.4, -999.0
13-10-2023, 00:41:44,    191,    0.6,   12.6,   0.00,   0.01, 1003.6,    0.2, -999.0
13-10-2023, 00:41:55,    191,    0.4,   12.6,   0.00,   0.00, 1003.6,    0.2, -999.0
13-10-2023, 00:42:05,    191,    1.0,   12.6,   0.00,   0.01, 1003.7,    0.2, -999.0
13-10-2023, 00:42:14,    188,    0.8,   12.5,   0.00,   0.00, 1003.6,    0.3, -999.0
13-10-2023, 00:42:24,    188,    0.0,   12.5,   0.00,   0.01, 1003.5,    0.4, -999.0
13-10-2023, 00:42:35,    188,    0.0,   12.5,   0.00,   0.00, 1003.5,    0.0, -999.0
13-10-2023, 00:42:45,    188,    0.0,   12.5,   0.00,   0.01, 1003.5,    0.1, -999.0
13-10-2023, 00:42:54,    188,    0.0,   12.5,   0.00,   0.00, 1003.5,    0.0, -999.0
13-10-2023, 00:43:04,    171,    0.8,   12.6,   0.00,   0.01, 1003.5,    0.1, -999.0
13-10-2023, 00:43:15,    171,    0.7,   12.5,   0.00,   0.00, 1003.5,    0.1, -999.0
13-10-2023, 00:43:24,    169,    1.4,   12.6,   0.00,   0.01, 1003.5,    0.2, -999.0
13-10-2023, 00:43:34,    169,    2.0,   12.5,   0.00,   0.00, 1003.5,    0.2, -999.0
13-10-2023, 00:43:44,    168,    0.7,   12.5,   0.00,   0.01, 1003.5,    0.3, -999.0
13-10-2023, 00:43:54,    168,    0.0,   12.5,   0.00,   0.00, 1003.4,    0.2, -999.0
13-10-2023, 00:44:04,    168,    0.0,   12.4,   0.00,   0.01, 1003.4,    0.2, -999.0
13-10-2023, 00:44:14,    168,    0.6,   12.5,   0.00,   0.00, 1003.5,    0.3, -999.0
13-10-2023, 00:44:24,    168,    0.1,   12.5,   0.00,   0.00, 1003.5,    0.3, -999.0
13-10-2023, 00:44:34,    168,    0.0,   12.4,   0.00,   0.01, 1003.4,    0.1, -999.0
13-10-2023, 00:44:44,    168,    0.0,   12.5,   0.00,   0.00, 1003.4,    0.0, -999.0
13-10-2023, 00:44:54,    168,    0.4,   12.6,   0.00,   0.01, 1003.5,    0.1, -999.0
13-10-2023, 00:45:04,    168,    0.3,   12.6,   0.00,   0.00, 1003.5,    0.1, -999.0
13-10-2023, 00:45:14,    135,    3.6,   12.6,   0.00,   0.00, 1003.6,    0.1, -999.0
13-10-2023, 00:45:24,    157,    3.4,   12.6,   0.00,   0.01, 1003.5,    0.4, -999.0
13-10-2023, 00:45:34,    157,    1.6,   12.6,   0.00,   0.00, 1003.6,    0.4, -999.0
13-10-2023, 00:45:44,    157,    1.0,   12.6,   0.00,   0.01, 1003.5,    0.4, -999.0
13-10-2023, 00:45:54,    157,    0.4,   12.6,   0.00,   0.00, 1003.5,    0.2, -999.0
13-10-2023, 00:46:04,    133,    1.6,   12.5,   0.00,   0.00, 1003.5,    0.2, -999.0
13-10-2023, 00:46:14,    165,    2.3,   12.6,   0.00,   0.01, 1003.5,    0.3, -999.0
13-10-2023, 00:46:24,    165,    0.8,   12.6,   0.00,   0.00, 1003.5,    0.3, -999.0
13-10-2023, 00:46:34,    216,    0.0,   12.4,   0.00,   0.01, 1003.4,    0.2, -999.0
13-10-2023, 00:46:44,    216,    0.0,   12.5,   0.00,   0.00, 1003.4,    0.1, -999.0